When you browse on this site, cookies collect data to enhance your experience and personalize the content and advertising you see.
Visit our Privacy Policy to learn more. By continuing to use the site, you agree to this use of cookies and data.
  • In Belgium
  • List of Countries
  • For 7 days
  • Water Temperature
  • Weather Map
  • Weather Widgets
  • user-avatar
    Login

    Hourly Weather Phnom Penh

    Today, 19 November, Tuesday

    Time Temperature Precipitation Wind Pressure Humidity
    00:00 +27°C° 0.3 mm 1 mps 757 mmHg 83%
    01:00 +27°C° 0 mm 1 mps 756 mmHg 85%
    02:00 +27°C° 0.2 mm 1 mps 756 mmHg 86%
    03:00 +26°C° 0.2 mm 1 mps 756 mmHg 87%
    04:00 +26°C° 0.2 mm 1 mps 756 mmHg 88%
    05:00 +26°C° 0 mm 1 mps 757 mmHg 89%
    06:00 +26°C° 0 mm 2 mps 757 mmHg 90%
    07:00 +26°C° 0 mm 2 mps 757 mmHg 90%
    08:00 +28°C° 0 mm 3 mps 758 mmHg 82%
    09:00 +29°C° 0 mm 3 mps 758 mmHg 73%
    10:00 +32°C° 0 mm 4 mps 758 mmHg 65%
    11:00 +32°C° 0 mm 4 mps 757 mmHg 61%
    12:00 +33°C° 0 mm 4 mps 757 mmHg 58%
    13:00 +34°C° 0 mm 5 mps 756 mmHg 54%
    14:00 +33°C° 0 mm 4 mps 756 mmHg 56%
    15:00 +33°C° 0 mm 4 mps 756 mmHg 57%
    16:00 +33°C° 0 mm 4 mps 755 mmHg 59%
    17:00 +30°C° 0 mm 4 mps 756 mmHg 63%
    18:00 +29°C° 0 mm 3 mps 756 mmHg 66%
    19:00 +28°C° 0 mm 3 mps 756 mmHg 70%
    20:00 +27°C° 0 mm 3 mps 757 mmHg 71%
    21:00 +27°C° 0 mm 3 mps 757 mmHg 71%
    22:00 +26°C° 0 mm 2 mps 758 mmHg 71%
    23:00 +26°C° 0 mm 3 mps 758 mmHg 72%

    Tomorrow, 20 November, Wednesday

    Time Temperature Precipitation Wind Pressure Humidity
    00:00 +25°C° 0 mm 3 mps 757 mmHg 72%
    01:00 +25°C° 0 mm 3 mps 757 mmHg 72%
    02:00 +24°C° 0 mm 3 mps 757 mmHg 73%
    03:00 +24°C° 0 mm 3 mps 757 mmHg 75%
    04:00 +22°C° 0 mm 3 mps 756 mmHg 76%
    05:00 +22°C° 0 mm 3 mps 757 mmHg 76%
    06:00 +22°C° 0 mm 3 mps 758 mmHg 77%
    07:00 +22°C° 0 mm 3 mps 758 mmHg 77%
    08:00 +25°C° 0 mm 4 mps 758 mmHg 72%
    09:00 +27°C° 0 mm 5 mps 758 mmHg 67%
    10:00 +29°C° 0 mm 6 mps 759 mmHg 63%
    11:00 +30°C° 0 mm 6 mps 758 mmHg 61%
    12:00 +32°C° 0 mm 6 mps 757 mmHg 59%
    13:00 +32°C° 0 mm 6 mps 757 mmHg 58%
    14:00 +32°C° 0 mm 5 mps 756 mmHg 59%
    15:00 +32°C° 0 mm 5 mps 756 mmHg 60%
    16:00 +32°C° 0 mm 4 mps 755 mmHg 61%
    17:00 +30°C° 0 mm 4 mps 756 mmHg 65%
    18:00 +28°C° 0 mm 3 mps 756 mmHg 70%
    19:00 +27°C° 0 mm 3 mps 756 mmHg 75%
    20:00 +27°C° 0 mm 3 mps 757 mmHg 76%
    21:00 +26°C° 0 mm 2 mps 757 mmHg 77%
    22:00 +26°C° 0 mm 2 mps 758 mmHg 78%
    23:00 +25°C° 0 mm 3 mps 758 mmHg 79%

    Day after tomorrow, 21 November, Thursday

    Time Temperature Precipitation Wind Pressure Humidity
    00:00 +25°C° 0 mm 3 mps 757 mmHg 79%
    01:00 +23°C° 0 mm 4 mps 757 mmHg 79%
    02:00 +23°C° 0 mm 4 mps 757 mmHg 78%
    03:00 +22°C° 0 mm 4 mps 757 mmHg 77%
    04:00 +22°C° 0 mm 4 mps 756 mmHg 76%
    05:00 +22°C° 0 mm 4 mps 757 mmHg 77%
    06:00 +22°C° 0 mm 4 mps 757 mmHg 77%
    07:00 +22°C° 0 mm 3 mps 758 mmHg 78%
    08:00 +25°C° 0 mm 4 mps 758 mmHg 73%
    09:00 +27°C° 0 mm 5 mps 758 mmHg 68%
    10:00 +29°C° 0 mm 6 mps 758 mmHg 64%
    11:00 +30°C° 0 mm 6 mps 758 mmHg 62%
    12:00 +30°C° 0 mm 6 mps 757 mmHg 60%
    13:00 +32°C° 0 mm 5 mps 757 mmHg 58%
    14:00 +32°C° 0 mm 5 mps 756 mmHg 60%
    15:00 +32°C° 0 mm 5 mps 756 mmHg 61%
    16:00 +32°C° 0 mm 5 mps 755 mmHg 62%
    17:00 +30°C° 0 mm 4 mps 756 mmHg 66%
    18:00 +28°C° 0 mm 3 mps 756 mmHg 70%
    19:00 +27°C° 0 mm 3 mps 757 mmHg 74%
    20:00 +27°C° 0 mm 3 mps 757 mmHg 74%
    21:00 +26°C° 0 mm 3 mps 757 mmHg 75%
    22:00 +26°C° 0 mm 3 mps 758 mmHg 75%
    23:00 +25°C° 0 mm 3 mps 758 mmHg 75%

    22 November, Friday

    Time Temperature Precipitation Wind Pressure Humidity
    00:00 +25°C° 0 mm 3 mps 757 mmHg 75%
    01:00 +25°C° 0 mm 3 mps 757 mmHg 75%
    02:00 +25°C° 0 mm 4 mps 757 mmHg 76%
    03:00 +23°C° 0 mm 4 mps 757 mmHg 76%
    04:00 +23°C° 0 mm 4 mps 756 mmHg 77%
    05:00 +25°C° 0 mm 4 mps 757 mmHg 78%
    06:00 +25°C° 0 mm 4 mps 757 mmHg 79%
    07:00 +25°C° 0 mm 4 mps 758 mmHg 80%
    08:00 +27°C° 0 mm 5 mps 758 mmHg 75%
    09:00 +28°C° 0 mm 6 mps 758 mmHg 70%
    10:00 +30°C° 0 mm 6 mps 758 mmHg 64%
    11:00 +32°C° 0 mm 6 mps 757 mmHg 62%
    12:00 +33°C° 0 mm 6 mps 757 mmHg 60%
    13:00 +33°C° 0 mm 6 mps 756 mmHg 58%
    14:00 +33°C° 0 mm 5 mps 756 mmHg 59%
    15:00 +33°C° 0 mm 5 mps 755 mmHg 59%
    16:00 +33°C° 0 mm 4 mps 755 mmHg 60%
    17:00 +32°C° 0 mm 4 mps 755 mmHg 64%
    18:00 +29°C° 0 mm 3 mps 756 mmHg 69%
    19:00 +28°C° 0 mm 2 mps 756 mmHg 74%
    20:00 +28°C° 0 mm 2 mps 757 mmHg 74%
    21:00 +27°C° 0 mm 2 mps 757 mmHg 75%
    22:00 +27°C° 0 mm 2 mps 758 mmHg 76%
    23:00 +27°C° 0 mm 2 mps 757 mmHg 76%

    23 November, Saturday

    Time Temperature Precipitation Wind Pressure Humidity
    00:00 +27°C° 0 mm 3 mps 757 mmHg 77%
    01:00 +26°C° 0 mm 3 mps 757 mmHg 78%
    02:00 +26°C° 0 mm 3 mps 756 mmHg 79%
    03:00 +26°C° 0 mm 3 mps 756 mmHg 80%
    04:00 +25°C° 0 mm 3 mps 756 mmHg 81%
    05:00 +25°C° 0 mm 3 mps 757 mmHg 81%
    06:00 +26°C° 0 mm 3 mps 757 mmHg 82%
    07:00 +26°C° 0 mm 3 mps 758 mmHg 83%
    08:00 +27°C° 0 mm 4 mps 758 mmHg 77%
    09:00 +29°C° 0 mm 4 mps 758 mmHg 72%
    10:00 +32°C° 0 mm 5 mps 758 mmHg 67%
    11:00 +32°C° 0.5 mm 5 mps 758 mmHg 65%
    12:00 +33°C° 0.5 mm 5 mps 757 mmHg 63%
    13:00 +34°C° 0.5 mm 5 mps 756 mmHg 61%
    14:00 +33°C° 1.3 mm 5 mps 756 mmHg 62%
    15:00 +33°C° 1.3 mm 4 mps 755 mmHg 63%
    16:00 +33°C° 1.3 mm 4 mps 755 mmHg 64%
    17:00 +31°C° 0.2 mm 3 mps 756 mmHg 69%
    18:00 +30°C° 0.2 mm 3 mps 756 mmHg 73%
    19:00 +28°C° 0.2 mm 2 mps 757 mmHg 77%
    20:00 +28°C° 0.1 mm 2 mps 757 mmHg 78%
    21:00 +28°C° 0.1 mm 2 mps 757 mmHg 79%
    22:00 +27°C° 0.1 mm 2 mps 757 mmHg 81%
    23:00 +27°C° 0.1 mm 1 mps 757 mmHg 81%

    24 November, Sunday

    Time Temperature Precipitation Wind Pressure Humidity
    00:00 +27°C° 0.1 mm 1 mps 757 mmHg 82%
    01:00 +27°C° 0.1 mm 1 mps 756 mmHg 83%
    02:00 +26°C° 0 mm 1 mps 756 mmHg 84%
    03:00 +26°C° 0 mm 1 mps 756 mmHg 85%
    04:00 +26°C° 0 mm 1 mps 756 mmHg 86%
    05:00 +26°C° 0 mm 1 mps 756 mmHg 86%
    06:00 +26°C° 0 mm 1 mps 757 mmHg 85%
    07:00 +27°C° 0 mm 1 mps 757 mmHg 85%
    08:00 +28°C° 0 mm 2 mps 757 mmHg 78%
    09:00 +30°C° 0 mm 2 mps 758 mmHg 71%
    10:00 +31°C° 0 mm 3 mps 758 mmHg 65%
    11:00 +33°C° 0 mm 4 mps 757 mmHg 61%
    12:00 +34°C° 0 mm 4 mps 756 mmHg 58%
    13:00 +35°C° 0 mm 5 mps 755 mmHg 55%
    14:00 +35°C° 0 mm 4 mps 755 mmHg 56%
    15:00 +34°C° 0 mm 4 mps 755 mmHg 57%
    16:00 +34°C° 0 mm 3 mps 754 mmHg 58%
    17:00 +33°C° 0 mm 3 mps 755 mmHg 62%
    18:00 +31°C° 0 mm 3 mps 755 mmHg 66%
    19:00 +29°C° 0 mm 2 mps 756 mmHg 70%
    20:00 +29°C° 0 mm 2 mps 756 mmHg 72%
    21:00 +28°C° 0 mm 2 mps 756 mmHg 74%
    22:00 +28°C° 0 mm 2 mps 757 mmHg 75%
    23:00 +28°C° 0 mm 2 mps 756 mmHg 77%
    Show more